Hourly Data Report for December 12, 2017

All times are specified in Local Standard Time (LST). Add 1 hour to adjust for Daylight Saving Time where and when it is observed.

KLEEFELD (MAFRI)
MANITOBA

49°31'04.000" N
96°54'04.000" W
246.50 m
5021500
71646
PTG

Download Data

Hourly Data (December 2017)
Hourly Data Report for December 12, 2017
Temp Definition
°C
Dew Point Temp Definition
°C
Rel Hum Definition
%
Wind Dir Definition
10's deg

Wind Spd Definition
km/h
Visibility Definition
km
Stn Press Definition
kPa
Hmdx Definition


Wind Chill Definition


Weather Definition


TIME
00:00 -19.2 -21.5 82 19 11   99.51   -27 LegendNANA
01:00 -19.1 -21.7 81 18 8   99.43   -25 LegendNANA
02:00 -16.7 -19.0 83 18 4   99.35   -20 LegendNANA
03:00 -15.3 -17.4 84 17 7   99.27   -20 LegendNANA
04:00 -13.6 -15.6 85 17 7   99.13   -18 LegendNANA
05:00 -12.2 -14.1 86 16 10   98.99   -18 LegendNANA
06:00 -11.5 -13.2 87 15 11   98.82   -17 LegendNANA
07:00 -10.9 -12.7 87 16 12   98.72   -17 LegendNANA
08:00 -10.5 -12.2 87 17 11   98.58   -16 LegendNANA
09:00 -9.8 -11.5 88 15 8   98.52   -14 LegendNANA
10:00 -8.9 -10.5 88 15 8   98.43   -13 LegendNANA
11:00 -8.1 -9.7 88 14 8   98.34   -12 LegendNANA
12:00 -7.3 -8.8 89 16 15   98.12   -13 LegendNANA
13:00 -6.4 -8.3 86 16 15   97.99   -12 LegendNANA
14:00 -5.7 -7.8 85 15 13   97.77   -11 LegendNANA
15:00 -5.5 -7.9 83 14 13   97.65   -11 LegendNANA
16:00 -5.5 -7.7 84 13 16   97.49   -11 LegendNANA
17:00 -6.8 -8.6 87 13 15   97.40   -13 LegendNANA
18:00 -6.0 -7.6 88 14 16   97.24   -12 LegendNANA
19:00 -5.1 -6.8 88 14 11   97.10   -10 LegendNANA
20:00 -4.5 -6.2 88 14 10   96.96   -9 LegendNANA
21:00 -5.0 -6.7 88 11 11   96.85   -10 LegendNANA
22:00 -5.3 -6.9 89 12 10   96.77   -10 LegendNANA
23:00 -5.2 -6.8 89 6 8   96.84   -9 LegendNANA

Notes on Data Quality.

Legend

  • E = Estimated
  • M = Missing
  • NA = Not Available
  • ‡ = Partner data that is not subject to review by the National Climate Archives
Date modified: